Погода в Красном

Россия / Воронежская область     51°10′07″N   41°28′31″E
темп.,
°C
ветер,
м/с
пор.,
м/с
влажн.,
%
обл.,
%
осадки,
мм/ч
давл.,
гПа
погр.,
м
11 мая, вт
вт1100:00+12ссв71496100 0.8 1012516
03:00+7ююв41099100 5.4 1013393
06:00+8вюв3896100 4.6 1015622
09:00+9вюв81172100 4.8 10191337
12:00+11в81166100 0.0 10201623
15:00+11вюв8127293 0.1 10221398
18:00+10юв611785 0.2 1023934
21:00+7в410906 0.2 1025251
12 мая, ср
ср1200:00+6всв3688100 0.0 1024111
03:00+7всв51186100 0.0 1024227
06:00+8св41085100 0.0 1023272
09:00+12всв3571100 0.0 1022507
12:00+16в346031 0.0 10201384
15:00+18вюв575033 0.0 10192070
18:00+17вюв47665 0.0 1018273
21:00+12в41090100 0.0 1019182
13 мая, чт
чт1300:00+11в36945 0.0 1018111
03:00+10всв339355 0.0 101842
06:00+12всв2497100 0.4 1017126
09:00+16вюв348858 0.8 1016480
12:00+19ююв347242 0.6 1016980
15:00+22ююв245944 2.5 10161238
18:00+19вюв227399 0.3 101636
21:00+17в227872 0.3 101726
14 мая, пт
пт1400:00+16всв3484100 0.0 101759
03:00+14в489268 0.0 1017130
06:00+15вюв3890100 0.0 1017182
09:00+21юв487111 0.0 1017409
12:00+25юв57595 0.0 10161036
15:00+26юв675834 0.0 10151444
18:00+24юв5106959 0.0 1014368
21:00+19вюв4982100 0.0 1013148
15 мая, сб
сб1500:00+18юв515725 0.0 1013339
03:00+15юв513615 0.0 1013258
06:00+14юв513685 0.0 1013292
09:00+19ю6106246 0.0 1013555
12:00+23юв4561100 0.0 1013688
15:00+25ююв685741 0.0 10131343
18:00+22ююз3671100 0.2 1012138
21:00+19зюз118399 0.3 101311